Location: Kalberh�ni
(46.4610°N, 7.2453°E)
Time: 22:30:14
(UTC+00:00)

USA 229 - Pass Details

Date: 26 October 2021
Orbit: 946 x 1266 km, 63.4° (Epoch: 25 November)

Event Time Altitude Azimuth Distance (km) Brightness Sun altitude
Rises 21:30:42 0° 295° (WNW) 3,776 7.1 -49.8°
Reaches altitude 10° 21:34:07 10° 312° (NW) 2,880 6.4 -50.2°
Enters shadow 21:35:43 15° 324° (NW) 2,570 6.1 -50.3°
